Location: Oberkirch
(48.5323°N, 8.0787°E)
Time: 16:19:49
(UTC+00:00)

S-56A Canister/Altair - Pass Details

Date: 17 February 2026
Orbit: 633 x 2484 km, 38.9° (Epoch: 8 March)

Event Time Altitude Azimuth Distance (km) Brightness Sun altitude
Exits shadow 01:30:50 21° 116° (ESE) 3,210 10.7 -47.0°
Drops below altitude 10° 01:34:18 10° 108° (ESE) 4,249 11.4 -46.7°
Sets 01:38:31 0° 104° (ESE) 5,520 12.2 -46.2°
